sat.trackr.live / text

‹ back to catalog

STARLINK-34702

NORAD 64908 · 2025-157E

PAYLOAD ACTIVE UNKNOWN

§ Identity

Operator
Country
US
Launch date
2025-07-26
Launch site
AFETR
Launch vehicle
Mass (kg)
RCS (m²)

Purposes: comms

External: N2YO · Heavens-Above · Gunter

§ Orbital elements

Epoch: 2026-09-20T10:38:44.799648Z

Period
94.01 min
Inclination
53.1606°
Eccentricity
0.0000980
Mean motion
15.31696026 rev/d
Perigee alt
470.1 km
Apogee alt
471.4 km
Semi-major
6,848.9 km
B*
-6.8445e-5
RAAN
159.4822°
Arg perigee
98.4100°
Mean anomaly
261.7013°
Rev number
6,596

§ Raw data

STARLINK-347021 64908U 25157E   26263.44357407 -.00002488  00000+0 -68445-4 0  99942 64908  53.1606 159.4822 0000980  98.4100 261.7013 15.31696026 65965

JSON: /api/v1/satellites/64908 · /tle

For live sub-satellite position, see the globe view (requires WebGL).

§ Visibility from observer

Set your observer location to see the next 7 days of passes ≥ 10°. The values pass through the URL so the page stays shareable.

No JS? Fill the form by hand. The geolocation button needs JavaScript.